Tracking 18785 objects as of 22-July-2017
HD Live streaming from Space Station
objects crossing your sky now
MAYAK may become the brightest orbital object in the night sky!
Where is MAYAK now?
How to spot MAYAK

SL-8 DEB

Track SL-8 DEB now!
10-day predictions


NORAD ID: 18545
Int'l Code: 1986-100C
Perigee: 879.0 km
Apogee: 906.0 km
Inclination: 82.9 °
Period: 102.7 minutes
Semi major axis: 7263 km
RCS: 0.0131 m2 (small)
Launch date: December 17, 1986
Source: Commonwealth of Independent States (former USSR) (CIS)
Launch site: PLESETSK MISSILE AND SPACE COMPLEX (PKMTR)

Note: This is SATELLITE DEBRIS
Your satellite tracking list
Your tracking list is empty





NASA's NSSDC Master Catalog

Two Line Element Set (TLE):
1 18545U 86100C   17203.32604175 +.00000343 +00000-0 +21225-3 0  9994
2 18545 082.9279 153.3784 0018591 029.8894 122.3554 14.02436378548745
Source of the keplerian elements: AFSPC